sat.trackr.live / text

‹ back to catalog

STARLINK-30967

NORAD 58416 · 2023-180Q

PAYLOAD ACTIVE UNKNOWN

§ Identity

Operator
Country
US
Launch date
2023-11-22
Launch site
AFETR
Launch vehicle
Mass (kg)
RCS (m²)

Purposes: comms

External: N2YO · Heavens-Above · Gunter

§ Orbital elements

Epoch: 2026-09-20T09:29:45.408480Z

Period
94.27 min
Inclination
43.0038°
Eccentricity
0.0001657
Mean motion
15.27577520 rev/d
Perigee alt
481.9 km
Apogee alt
484.2 km
Semi-major
6,861.2 km
B*
1.8351e-5
RAAN
32.9520°
Arg perigee
274.3926°
Mean anomaly
85.6736°
Rev number
15,740

§ Raw data

STARLINK-309671 58416U 23180Q   26263.39566445  .00000243  00000+0  18351-4 0  99992 58416  43.0038  32.9520 0001657 274.3926  85.6736 15.27577520157400

JSON: /api/v1/satellites/58416 · /tle

For live sub-satellite position, see the globe view (requires WebGL).

§ Visibility from observer

Set your observer location to see the next 7 days of passes ≥ 10°. The values pass through the URL so the page stays shareable.

No JS? Fill the form by hand. The geolocation button needs JavaScript.